Satellite: NO-44
Catalog number: 26931
Epoch time:      11027.35516250
Element set:     665
Inclination:      067.0539 deg
RA of node:       346.4019 deg
Eccentricity:    0.0006897
Arg of perigee:   272.1309 deg
Mean anomaly:     087.8993 deg
Mean motion:   14.29629982 rev/day
Decay rate:      -2.60e-06 rev/day^2
Epoch rev:           48679
Checksum:              344

Satellite: SO-50
Catalog number: 27607
Epoch time:      11027.53964372
Element set:     376
Inclination:      064.5591 deg
RA of node:       035.0126 deg
Eccentricity:    0.0056681
Arg of perigee:   354.6725 deg
Mean anomaly:     005.3769 deg
Mean motion:   14.71634569 rev/day
Decay rate:        3.9e-07 rev/day^2
Epoch rev:           43539
Checksum:              321

Satellite: CO-55
Catalog number: 27844
Epoch time:      11026.48552002
Element set:    0031
Inclination:      098.7076 deg
RA of node:       037.2391 deg
Eccentricity:    0.0009091
Arg of perigee:   247.3394 deg
Mean anomaly:     112.6828 deg
Mean motion:   14.20763793 rev/day
Decay rate:        5.0e-07 rev/day^2
Epoch rev:           39279
Checksum:              304

Satellite: CO-57
Catalog number: 27848
Epoch time:      11026.47768676
Element set:     978
Inclination:      098.7140 deg
RA of node:       036.3766 deg
Eccentricity:    0.0009039
Arg of perigee:   252.6267 deg
Mean anomaly:     107.3952 deg
Mean motion:   14.20550069 rev/day
Decay rate:        6.5e-07 rev/day^2
Epoch rev:           39274
Checksum:              343

Satellite: AO-51
Catalog number: 28375
Epoch time:      11026.43437643
Element set:    0881
Inclination:      098.0813 deg
RA of node:       012.4581 deg
Eccentricity:    0.0084056
Arg of perigee:   139.2585 deg
Mean anomaly:     221.4931 deg
Mean motion:   14.40720983 rev/day
Decay rate:        2.6e-07 rev/day^2
Epoch rev:           34565
Checksum:              300

Satellite: CP3
Catalog number: 31129
Epoch time:      11026.92228453
Element set:    0783
Inclination:      097.9149 deg
RA of node:       059.2123 deg
Eccentricity:    0.0101221
Arg of perigee:   259.4760 deg
Mean anomaly:     099.4991 deg
Mean motion:   14.52366612 rev/day
Decay rate:      -1.14e-06 rev/day^2
Epoch rev:           20033
Checksum:              284

Satellite: CO-65
Catalog number: 32785
Epoch time:      11027.16040438
Element set:     899
Inclination:      097.8684 deg
RA of node:       093.6484 deg
Eccentricity:    0.0013813
Arg of perigee:   275.6785 deg
Mean anomaly:     084.2848 deg
Mean motion:   14.81815812 rev/day
Decay rate:       5.41e-06 rev/day^2
Epoch rev:           14865
Checksum:              348

Satellite: KKS-1
Catalog number: 33493
Epoch time:      11027.60931005
Element set:     256
Inclination:      098.1060 deg
RA of node:       154.3874 deg
Eccentricity:    0.0020756
Arg of perigee:   133.4692 deg
Mean anomaly:     226.8257 deg
Mean motion:   14.81296709 rev/day
Decay rate:       4.50e-06 rev/day^2
Epoch rev:           10870
Checksum:              289

Satellite: SOHLA-1
Catalog number: 33496
Epoch time:      11027.79042357
Element set:     318
Inclination:      098.0684 deg
RA of node:       139.1571 deg
Eccentricity:    0.0006060
Arg of perigee:   202.0614 deg
Mean anomaly:     158.0326 deg
Mean motion:   14.69550788 rev/day
Decay rate:       -3.9e-07 rev/day^2
Epoch rev:           10786
Checksum:              299

Satellite: TISAT-1
Catalog number: 36799
Epoch time:      11027.55190323
Element set:     530
Inclination:      098.1204 deg
RA of node:       094.3269 deg
Eccentricity:    0.0015719
Arg of perigee:   015.6276 deg
Mean anomaly:     344.5419 deg
Mean motion:   14.80298559 rev/day
Decay rate:       2.78e-06 rev/day^2
Epoch rev:            2950
Checksum:              313

Satellite: STUDSAT
Catalog number: 36801
Epoch time:      11026.87115937
Element set:     124
Inclination:      098.1257 deg
RA of node:       093.4990 deg
Eccentricity:    0.0014174
Arg of perigee:   006.1072 deg
Mean anomaly:     354.0297 deg
Mean motion:   14.79963106 rev/day
Decay rate:       6.07e-06 rev/day^2
Epoch rev:            2939
Checksum:              296

Satellite: RAX
Catalog number: 37223
Epoch time:      11025.33628999
Element set:    0063
Inclination:      071.9737 deg
RA of node:       353.9981 deg
Eccentricity:    0.0021733
Arg of perigee:   197.2501 deg
Mean anomaly:     162.7907 deg
Mean motion:   14.77222180 rev/day
Decay rate:       1.11e-06 rev/day^2
Epoch rev:           00979
Checksum:              300

Satellite: OOREOS
Catalog number: 37224
Epoch time:      11003.47313986
Element set:    0047
Inclination:      071.9731 deg
RA of node:       042.3045 deg
Eccentricity:    0.0021305
Arg of perigee:   233.7010 deg
Mean anomaly:     126.2182 deg
Mean motion:   14.76873402 rev/day
Decay rate:       1.90e-06 rev/day^2
Epoch rev:           00655
Checksum:              247

Satellite: NANOSALD
Catalog number: 37225
Epoch time:      11025.43306579
Element set:    0010
Inclination:      071.9760 deg
RA of node:       353.9401 deg
Eccentricity:    0.0020355
Arg of perigee:   190.5305 deg
Mean anomaly:     169.5636 deg
Mean motion:   14.77233581 rev/day
Decay rate:     2.1226e-04 rev/day^2
Epoch rev:           00090
Checksum:              265

